Regional Weather Roundup
Issued by NWS

Home | Current Version | Previous Version | Graphics & Text | Print | Product List | Glossary On
Versions: 1 2 3 4 5 6 7 8 9 10 11 12 13 14 15 16 17 18 19 20 21 22 23 24 25 26 27 28 29 30 31 32 33 34 35 36 37 38 39 40 41 42 43 44 45 46 47 48 49 50
000
ASUS44 KMEG 010110
RWRTN
TENNESSEE HOURLY STATE WEATHER ROUNDUP
NATIONAL WEATHER SERVICE MEMPHIS TN
800 PM CDT FRI SEP 30 2016

TNZ002-004-019-021-049-052-054-088>092-010200-
WEST TENNESSEE

CITY           SKY/WX    TMP DP  RH WIND       PRES   REMARKS
MEMPHIS INTL   MOCLDY    69  54  58 NW7       30.05R
NWS MEMPHIS      N/A     65 N/A N/A MISG        N/A
JACKSON          N/A    N/A N/A N/A MISG      30.05R
DYERSBURG      CLOUDY   N/A N/A N/A MISG        N/A
UNION CITY     MOCLDY    63  59  88 CALM      30.03S
PARIS          MOCLDY    57  55  94 SW3       30.04S
HUNTINGDON     CLOUDY    61  57  88 CALM      30.04R
LEXINGTON      CLOUDY    63  57  82 CALM      30.05R
$$

TNZ008-025-027-028-033-062-065-066-010200-
NORTH MIDDLE TENNESSEE

CITY           SKY/WX    TMP DP  RH WIND       PRES   REMARKS
NASHVILLE      CLOUDY    60  58  92 S5        30.04S
PORTLAND       MOCLDY    57  57 100 S6        30.03R
CLARKSVILLE    LGT RAIN  62  59  90 CALM      30.03R
SMYRNA         CLOUDY    61  58  90 CALM      30.05S
COOKEVILLE     MOCLDY    57  55  94 CALM      30.05R
GALLATIN       CLOUDY    59  57  94 S3        30.06S
CROSSVILLE     CLOUDY    55  50  83 CALM      30.08R
$$

TNZ061-075-076-078-094-096-097-010200-
SOUTH MIDDLE TENNESSEE

CITY           SKY/WX    TMP DP  RH WIND       PRES   REMARKS
FAYETTEVILLE   CLOUDY    57  54  88 SE3       30.06S
TULLAHOMA      PTCLDY    55  52  88 CALM      30.07S
WINCHESTER     CLOUDY    55  52  88 CALM      30.08R
MCMINNVILLE    CLOUDY    61  54  77 S3        30.06S
COLUMBIA       CLOUDY   N/A N/A N/A S3        30.04R
SHELBYVILLE    CLEAR     61  54  77 S3        30.07R
$$

TNZ017-018-042-046-047-010200-
NORTHEAST TENNESSEE

CITY           SKY/WX    TMP DP  RH WIND       PRES   REMARKS
TRI CITIES     MOCLDY    62  54  74 CALM      30.06R
ELIZABETHTON     N/A     57  55  94 CALM      30.06R
$$

TNZ012-013-036-069-073-074-010200-
CENTRAL EAST TENNESSEE

CITY           SKY/WX    TMP DP  RH WIND       PRES   REMARKS
KNOXVILLE      CLEAR     62  46  55 SW5       30.04R
OAK RIDGE      MOCLDY    64  49  57 CALM      30.06R
DOWNTOWN KNOXV CLEAR     59  52  77 CALM      30.04S
GATLINBURG     CLEAR     57  45  62 CALM      30.05R
MORRISTOWN     PTCLDY    61  46  59 SW3       30.04S
JACKSBORO      MOCLDY    57  50  77 CALM      30.08R
$$

TNZ083-085-099-010200-
SOUTHEAST TENNESSEE

CITY           SKY/WX    TMP DP  RH WIND       PRES   REMARKS
CHATTANOOGA    PTCLDY    65  48  54 CALM      30.05R
$$

SKY/WX REPORTED AS FAIR MEANS FEW OR NO CLOUDS BELOW
12 THOUSAND FEET.





USA.gov is the U.S. government's official web portal to all federal, state and local government web resources and services.